Regional Weather Roundup
Issued by NWS

Home | Current Version | Previous Version | Graphics & Text | Print | Product List | Glossary On
Versions: 1 2 3 4 5 6 7 8 9 10 11 12 13 14 15 16 17 18 19 20 21 22 23 24 25 26 27
000
ASUS45 KCYS 221310
RWRWY

WYOMING REGIONAL WEATHER ROUNDUP
NATIONAL WEATHER SERVICE CHEYENNE WY
700 AM MDT SUN OCT 22 2017

NOTE:  "FAIR" INDICATES FEW OR NO CLOUDS BELOW 12,000 FEET
WITH NO SIGNIFICANT WEATHER AND/OR OBSTRUCTIONS TO VISIBILITY.

WYZ001-221400-
YELLOWSTONE NATIONAL PARK

CITY           SKY/WX    TMP DP  RH WIND       PRES   REMARKS
LK YELLOWSTONE   N/A     30  30 100 CALM      30.20F
W YELLOWSTONE  NOT AVBL

$$
WYZ002>013-054>058-071-098>099-221400-
NORTHERN WYOMING

CITY           SKY/WX    TMP DP  RH WIND       PRES   REMARKS
JACKSON        CLOUDY    37  31  78 SW15      30.23S WCI  28
CODY           FAIR      50  27  40 W22G36    30.01R
GREYBULL       FAIR      32  19  58 E3        30.02F
WORLAND        FAIR      28  22  78 SW3       30.03S
SHERIDAN       FAIR      37  22  54 W3        29.88S
BUFFALO        FAIR      38  14  37 VRB3      29.93S
GILLETTE       FAIR      44  19  36 SW21      29.92F
HULETT         FAIR      41  18  38 SW13      29.94S
NEWCASTLE      FAIR      30  19  64 E3        30.00S

$$
WYZ014>020-022>026-101>103-221400-
CENTRAL WYOMING

CITY           SKY/WX    TMP DP  RH WIND       PRES   REMARKS
BIG PINEY      FAIR      18  15  88 SW6       30.29S WCI  10
PINEDALE       CLOUDY    30  23  74 NW6       30.28R WCI  24
DUBOIS         FAIR      37  27  65 NW20G38   30.14S WCI  27
LANDER         FAIR      32  20  61 W9        30.08F WCI  24
RIVERTON       FAIR      34  20  56 S12       30.09S WCI  25
CASPER         FAIR      41  19  41 SW26      30.08S
DOUGLAS        FAIR      42  21  43 W10       30.04F

$$
WYZ021-027>030-104>119-221400-
SOUTHERN WYOMING

CITY           SKY/WX    TMP DP  RH WIND       PRES   REMARKS
EVANSTON       MOCLDY    38  20  48 SW14      30.37R WCI  30
KEMMERER       PTSUNNY   32  21  64 SW3       30.33S
FORT BRIDGER   PTSUNNY   40  25  54 W22G30    30.35S WCI  31
ROCK SPRINGS   CLOUDY    37  20  50 SW16      30.30S WCI  28
DIXON          FAIR      38  19  47 SW15      30.36F WCI  29
RAWLINS        FAIR      37  18  46 SW21G29   30.23R WCI  26
SARATOGA       FAIR      36  23  60 S12G20    30.28F WCI  27
LARAMIE        FAIR      37  20  50 W24G32    30.16F WCI  26
CHEYENNE       FAIR      43  19  38 W36G48    30.11F
TORRINGTON     FAIR      47  19  33 W15       30.04F
PINE BLUFFS    FAIR      43  21  42 MISG      30.13S

$$




USA.gov is the U.S. government's official web portal to all federal, state and local government web resources and services.